Terug naar catalogus

STARLINK-5864

ActiefCommunicatieVLEO
NORAD 55940·PAYLOAD·🇺🇸 United States

Gelanceerd Mar 17, 2023 vanaf Vandenberg Space Force Base

Loading…

Volgende Passages (komende 24 uur)

TLE

VersSource: CelesTrak SupGP

Epoch: Sep 15, 2026, 02:59 UTC

1 55940C 23037AC  26258.12479167  .00420760  00000+0  33216-1 0  2580
2 55940  70.0003 166.8049 0003174 269.5431 182.6316 15.00415749    18

Volg STARLINK-5864 in realtime met AllMySat

Download on the App Store